Home > Weather > Leimen > Past weeks

Flag for Germany Past Weather in Leimen, Baden-Württemberg, Germany — Yesterday and Last 2 Weeks

Now
59 °F

Partly sunny.


Feels Like: 59 °F
Forecast: 51 / 68 °F
Wind: 5 mph from Southeast

Location: Mannheim City

Current Time: May 31, 2016 at 8:08:00 AM

Latest Report: May 31, 2016 at 7:20 AM


Visibility: N/A

Pressure: 29.80 "Hg

Humidity: 82%

Dew Point: 54 °F

Location of LeimenLocation

Past Weather in Leimen — Graph

°F

Leimen Temperature Yesterday

Maximum temperature yesterday: 64 °F (at 12:20 PM)
Minimum temperature yesterday: 61 °F (at 5:50 AM)
Average temperature yesterday: 62 °F

High & Low Weather Summary for the Past Weeks

 TemperatureHumidityPressure
High81 °F (May 22, 2:50 PM)100% (May 16, 7:50 AM)30.15 "Hg (May 16, 7:50 AM)
Low45 °F (May 17, 5:50 AM)28% (May 22, 4:20 PM)29.59 "Hg (May 30, 5:50 AM)
Average62 °F70%29.93 "Hg
* Reported May 16 7:50 AM — May 31 6:50 AM, Leimen, Weather by CustomWeather, © 2016

Note: Actual official high and low records may vary slightly from our data, if they occured in-between our weather recording intervals... More about our weather records

Advertising

Leimen Weather History for the Previous 24 Hours

Scroll right to see more
 ConditionsComfort  
Time TempWeatherWind HumidityBarometerVisibility
6:50 AM
Tue, May 31
59 °FScattered showers. Mostly cloudy.6 mph82%29.77 "HgN/A
6:20 AM59 °FPassing clouds.6 mph82%29.77 "HgN/A
5:50 AM57 °FPassing clouds.5 mph88%29.77 "HgN/A
5:20 AM57 °FPassing clouds.5 mph88%29.77 "HgN/A
9:20 PM
Mon, May 30
63 °FScattered showers. Partly sunny.7 mph88%29.71 "HgN/A
8:50 PM63 °FBroken clouds.8 mph88%29.71 "HgN/A
8:20 PM63 °FPartly sunny.9 mph88%29.71 "HgN/A
7:50 PM63 °FScattered showers. Partly sunny.12 mph88%29.71 "HgN/A
7:20 PM63 °FScattered showers. Partly sunny.10 mph94%29.68 "HgN/A
6:50 PM63 °FSprinkles. Broken clouds.12 mph94%29.68 "HgN/A
6:20 PM63 °FSprinkles. Broken clouds.10 mph94%29.68 "HgN/A
5:50 PM64 °FScattered showers. Broken clouds.8 mph88%29.65 "HgN/A
5:20 PM63 °FSprinkles. Broken clouds.9 mph94%29.65 "HgN/A
4:50 PM63 °FSprinkles. Broken clouds.9 mph94%29.65 "HgN/A
4:20 PM63 °FScattered showers. Broken clouds.8 mph94%29.65 "HgN/A
3:50 PM64 °FScattered showers. Broken clouds.13 mph83%29.65 "HgN/A
3:20 PM64 °FScattered showers. Broken clouds.9 mph94%29.65 "HgN/A
2:50 PM64 °FBroken clouds.12 mph83%29.65 "HgN/A
2:20 PM64 °FPartly sunny.12 mph88%29.65 "HgN/A
1:50 PM64 °FScattered showers. Partly sunny.13 mph83%29.65 "HgN/A
12:50 PM63 °FSprinkles. Mostly cloudy.9 mph94%29.62 "HgN/A
12:20 PM64 °FPartly sunny.12 mph88%29.62 "HgN/A
11:50 AM63 °FPartly sunny.10 mph94%29.62 "HgN/A
10:50 AM63 °FPartly sunny.9 mph100%29.62 "HgN/A
10:20 AM63 °FLight rain. Partly sunny.9 mph94%29.62 "HgN/A
9:50 AM61 °FLight rain. Partly sunny.9 mph100%29.62 "HgN/A
9:20 AM61 °FBroken clouds.8 mph100%29.59 "HgN/A
8:50 AM61 °FLight rain. Partly sunny.9 mph100%29.59 "Hg6 mi
8:20 AM61 °FLight rain. Fog.8 mph100%29.59 "Hg3 mi
Weather by CustomWeather, © 2016

See weather overviewHow to use our weather pages